Time,TemperatureF,DewpointF,PressureIn,WindDirection,WindDirectionDegrees,WindSpeedMPH,WindSpeedGustMPH,Humidity,HourlyPrecipIn,Conditions,Clouds,dailyrainin,SoftwareType,DateUTC
2013-10-05 00:01:00,60.1,60.1,30.12,SSE,153,0.0,0.0,100,0.00,,CLR,0.00,VWS V14.01,2013-10-05 04:01:00,
2013-10-05 00:02:00,60.1,60.1,30.12,SSE,153,0.0,0.0,100,0.00,,CLR,0.00,VWS V14.01,2013-10-05 04:02:00,
2013-10-05 00:03:00,60.1,60.1,30.12,SSE,153,0.0,0.0,100,0.00,,CLR,0.00,VWS V14.01,2013-10-05 04:03:00,
2013-10-05 00:05:00,60.1,60.1,30.12,SSE,153,0.0,0.0,100,0.00,,CLR,0.00,VWS V14.01,2013-10-05 04:05:00,
2013-10-05 00:10:00,60.1,60.1,30.12,SSE,153,0.0,0.0,100,0.00,,CLR,0.00,VWS V14.01,2013-10-05 04:10:00,
2013-10-05 00:15:00,59.7,59.7,30.12,SSE,153,0.0,0.0,100,0.00,,CLR,0.00,VWS V14.01,2013-10-05 04:15:00,
2013-10-05 00:20:00,59.5,59.5,30.12,SSE,153,0.0,0.0,100,0.00,,CLR,0.00,VWS V14.01,2013-10-05 04:20:00,
2013-10-05 00:26:00,59.5,59.5,30.12,SSE,153,0.0,0.0,100,0.00,,CLR,0.00,VWS V14.01,2013-10-05 04:26:00,
2013-10-05 00:31:00,59.4,59.4,30.12,SSE,153,0.0,0.0,100,0.00,,CLR,0.00,VWS V14.01,2013-10-05 04:31:00,
2013-10-05 00:36:00,59.4,59.4,30.12,SSE,153,0.0,0.0,100,0.00,,CLR,0.00,VWS V14.01,2013-10-05 04:36:00,
2013-10-05 00:41:00,59.4,59.4,30.12,SSE,153,0.0,0.0,100,0.00,,CLR,0.00,VWS V14.01,2013-10-05 04:41:00,
2013-10-05 00:46:00,59.2,59.2,30.12,SSE,153,0.0,0.0,100,0.00,,CLR,0.00,VWS V14.01,2013-10-05 04:46:00,
2013-10-05 00:51:00,59.0,59.0,30.12,SSE,153,0.0,0.0,100,0.00,,SCT004,0.00,VWS V14.01,2013-10-05 04:51:00,
2013-10-05 00:56:00,59.0,59.0,30.09,SSE,153,0.0,0.0,100,0.00,,SCT004,0.00,VWS V14.01,2013-10-05 04:56:00,
2013-10-05 01:02:00,58.8,58.8,30.09,SSE,153,0.0,0.0,100,0.00,,SCT004,0.00,VWS V14.01,2013-10-05 05:02:00,
2013-10-05 01:07:00,58.8,58.8,30.09,SSE,153,0.0,0.0,100,0.00,,SCT004,0.00,VWS V14.01,2013-10-05 05:07:00,
2013-10-05 01:12:00,59.0,59.0,30.12,SSE,153,0.0,0.0,100,0.00,,,0.00,VWS V14.01,2013-10-05 05:12:00,
2013-10-05 01:17:00,58.8,58.8,30.12,SSE,153,0.0,0.0,100,0.00,,,0.00,VWS V14.01,2013-10-05 05:17:00,
2013-10-05 01:22:00,59.0,59.0,30.12,SSE,153,0.0,0.0,100,0.00,,,0.00,VWS V14.01,2013-10-05 05:22:00,
2013-10-05 01:27:00,59.0,59.0,30.12,SSE,153,0.0,0.0,100,0.00,,,0.00,VWS V14.01,2013-10-05 05:27:00,
2013-10-05 01:33:00,59.0,59.0,30.12,SSE,153,0.0,0.0,100,0.00,,,0.00,VWS V14.01,2013-10-05 05:33:00,
2013-10-05 01:38:00,58.8,58.8,30.12,SSE,153,0.0,0.0,100,0.00,,,0.00,VWS V14.01,2013-10-05 05:38:00,
2013-10-05 01:43:00,58.8,58.8,30.12,SSE,153,0.0,0.0,100,0.00,,,0.00,VWS V14.01,2013-10-05 05:43:00,
2013-10-05 01:48:00,58.8,58.8,30.12,SSE,153,0.0,0.0,100,0.00,,,0.00,VWS V14.01,2013-10-05 05:48:00,
2013-10-05 01:53:00,58.8,58.8,30.12,SSE,153,0.0,0.0,100,0.00,,,0.00,VWS V14.01,2013-10-05 05:53:00,
2013-10-05 01:58:00,58.8,58.8,30.12,SSE,153,0.0,0.0,100,0.00,,,0.00,VWS V14.01,2013-10-05 05:58:00,
2013-10-05 02:04:00,58.8,58.8,30.12,SSE,153,0.0,0.0,100,0.00,,,0.00,VWS V14.01,2013-10-05 06:04:00,
2013-10-05 02:09:00,58.8,58.8,30.12,SSE,153,0.0,0.0,100,0.00,,,0.00,VWS V14.01,2013-10-05 06:09:00,
2013-10-05 02:14:00,59.0,59.0,30.12,SSE,153,0.0,0.0,100,0.00,,,0.00,VWS V14.01,2013-10-05 06:14:00,
2013-10-05 02:19:00,59.2,59.2,30.12,SSE,153,0.0,0.0,100,0.00,,,0.00,VWS V14.01,2013-10-05 06:19:00,
2013-10-05 02:24:00,59.4,59.4,30.12,SSE,153,0.0,0.0,100,0.00,,,0.00,VWS V14.01,2013-10-05 06:24:00,
2013-10-05 02:29:00,59.5,59.5,30.12,SSE,153,0.0,0.0,100,0.00,,,0.00,VWS V14.01,2013-10-05 06:29:00,
2013-10-05 02:35:00,59.7,59.7,30.12,SSE,153,0.0,0.0,100,0.00,,,0.00,VWS V14.01,2013-10-05 06:35:00,
2013-10-05 02:40:00,59.9,59.9,30.12,SSE,153,0.0,0.0,100,0.00,,,0.00,VWS V14.01,2013-10-05 06:40:00,
2013-10-05 02:45:00,60.1,60.1,30.12,SSE,153,0.0,0.0,100,0.00,,,0.00,VWS V14.01,2013-10-05 06:45:00,
2013-10-05 02:50:00,60.1,60.1,30.12,SSE,153,0.0,0.0,100,0.00,,,0.00,VWS V14.01,2013-10-05 06:50:00,
2013-10-05 02:55:00,59.9,59.9,30.12,SSE,153,0.0,0.0,100,0.00,,,0.00,VWS V14.01,2013-10-05 06:55:00,
2013-10-05 03:00:00,59.7,59.7,30.09,SSE,153,0.0,0.0,100,0.00,,,0.00,VWS V14.01,2013-10-05 07:00:00,
2013-10-05 03:05:00,59.7,59.7,30.09,SSE,153,0.0,0.0,100,0.00,,,0.00,VWS V14.01,2013-10-05 07:05:00,
2013-10-05 03:11:00,59.7,59.7,30.09,SSE,153,0.0,0.0,100,0.00,,,0.00,VWS V14.01,2013-10-05 07:11:00,
2013-10-05 03:16:00,59.9,59.9,30.09,SSE,153,0.0,0.0,100,0.00,,,0.00,VWS V14.01,2013-10-05 07:16:00,
2013-10-05 03:21:00,59.9,59.9,30.09,SSE,153,0.0,0.0,100,0.00,,,0.00,VWS V14.01,2013-10-05 07:21:00,
2013-10-05 03:26:00,60.1,60.1,30.09,SSE,153,0.0,0.0,100,0.00,,,0.00,VWS V14.01,2013-10-05 07:26:00,
2013-10-05 03:31:00,60.1,60.1,30.09,SSE,153,0.0,0.0,100,0.00,,,0.00,VWS V14.01,2013-10-05 07:31:00,
2013-10-05 03:36:00,60.1,60.1,30.09,SSE,153,0.0,0.0,100,0.00,,,0.00,VWS V14.01,2013-10-05 07:36:00,
2013-10-05 03:41:00,60.1,60.1,30.09,SSE,153,0.0,0.0,100,0.00,,,0.00,VWS V14.01,2013-10-05 07:41:00,
2013-10-05 03:47:00,60.3,60.3,30.09,SSE,153,0.0,0.0,100,0.00,,,0.00,VWS V14.01,2013-10-05 07:47:00,
2013-10-05 03:52:00,60.3,60.3,30.09,SSE,153,0.0,0.0,100,0.00,,,0.00,VWS V14.01,2013-10-05 07:52:00,
2013-10-05 03:57:00,60.3,60.3,30.09,SSE,153,0.0,0.0,100,0.00,,,0.00,VWS V14.01,2013-10-05 07:57:00,
2013-10-05 04:02:00,60.3,60.3,30.09,SSE,153,0.0,0.0,100,0.00,,,0.00,VWS V14.01,2013-10-05 08:02:00,
2013-10-05 04:07:00,60.3,60.3,30.09,SSE,153,0.0,0.0,100,0.00,,,0.00,VWS V14.01,2013-10-05 08:07:00,
2013-10-05 04:12:00,60.3,60.3,30.09,SSE,153,0.0,0.0,100,0.00,,,0.00,VWS V14.01,2013-10-05 08:12:00,
2013-10-05 04:17:00,60.1,60.1,30.09,SSE,153,0.0,0.0,100,0.00,,,0.00,VWS V14.01,2013-10-05 08:17:00,
2013-10-05 04:22:00,59.9,59.9,30.09,SSE,153,0.0,0.0,100,0.00,,,0.00,VWS V14.01,2013-10-05 08:22:00,
2013-10-05 04:27:00,59.9,59.9,30.09,SSE,153,0.0,0.0,100,0.00,,,0.00,VWS V14.01,2013-10-05 08:27:00,
2013-10-05 04:33:00,59.9,59.9,30.09,SSE,153,0.0,0.0,100,0.00,,,0.00,VWS V14.01,2013-10-05 08:33:00,
2013-10-05 04:38:00,59.9,59.9,30.09,SSE,153,0.0,0.0,100,0.00,,,0.00,VWS V14.01,2013-10-05 08:38:00,
2013-10-05 04:43:00,59.9,59.9,30.09,SSE,153,0.0,0.0,100,0.00,,,0.00,VWS V14.01,2013-10-05 08:43:00,
2013-10-05 04:48:00,59.7,59.7,30.09,SSE,153,0.0,0.0,100,0.00,,,0.00,VWS V14.01,2013-10-05 08:48:00,
2013-10-05 04:53:00,59.7,59.7,30.09,SSE,153,0.0,0.0,100,0.00,,,0.00,VWS V14.01,2013-10-05 08:53:00,
2013-10-05 04:58:00,59.7,59.7,30.09,SSE,153,0.0,0.0,100,0.00,,,0.00,VWS V14.01,2013-10-05 08:58:00,
2013-10-05 05:03:00,59.5,59.5,30.09,SSE,153,0.0,0.0,100,0.00,,,0.00,VWS V14.01,2013-10-05 09:03:00,
2013-10-05 05:08:00,59.5,59.5,30.09,SSE,153,0.0,0.0,100,0.00,,,0.00,VWS V14.01,2013-10-05 09:08:00,
2013-10-05 05:13:00,59.7,59.7,30.09,SSE,153,0.0,0.0,100,0.00,,,0.00,VWS V14.01,2013-10-05 09:13:00,
2013-10-05 05:18:00,59.9,59.9,30.09,SSE,153,0.0,0.0,100,0.00,,,0.00,VWS V14.01,2013-10-05 09:18:00,
2013-10-05 05:24:00,59.9,59.9,30.09,SSE,153,0.0,0.0,100,0.00,,BKN003,0.00,VWS V14.01,2013-10-05 09:24:00,
2013-10-05 05:29:00,60.1,60.1,30.09,SSE,153,0.0,0.0,100,0.00,,BKN003,0.00,VWS V14.01,2013-10-05 09:29:00,
2013-10-05 05:34:00,60.1,60.1,30.09,SSE,153,0.0,0.0,100,0.00,,BKN003,0.00,VWS V14.01,2013-10-05 09:34:00,
2013-10-05 05:39:00,60.1,60.1,30.09,SSE,153,0.0,0.0,100,0.00,,BKN003,0.00,VWS V14.01,2013-10-05 09:39:00,
2013-10-05 05:44:00,60.1,60.1,30.12,SSE,153,0.0,0.0,100,0.00,,BKN003,0.00,VWS V14.01,2013-10-05 09:44:00,
2013-10-05 05:49:00,60.1,60.1,30.12,SSE,153,0.0,0.0,100,0.00,,BKN003,0.00,VWS V14.01,2013-10-05 09:49:00,
2013-10-05 05:54:00,60.1,60.1,30.12,SSE,153,0.0,0.0,100,0.00,,,0.00,VWS V14.01,2013-10-05 09:54:00,
2013-10-05 05:59:00,59.9,59.9,30.12,SSE,153,0.0,0.0,100,0.00,,,0.00,VWS V14.01,2013-10-05 09:59:00,
2013-10-05 06:04:00,59.7,59.7,30.12,SSE,153,0.0,0.0,100,0.00,,,0.00,VWS V14.01,2013-10-05 10:04:00,
2013-10-05 06:09:00,59.7,59.7,30.12,SSE,153,0.0,0.0,100,0.00,,,0.00,VWS V14.01,2013-10-05 10:09:00,
2013-10-05 06:15:00,59.7,59.7,30.12,SSE,153,0.0,0.0,100,0.00,,,0.00,VWS V14.01,2013-10-05 10:15:00,
2013-10-05 06:20:00,59.7,59.7,30.12,SSE,153,0.0,0.0,100,0.00,,,0.00,VWS V14.01,2013-10-05 10:20:00,
2013-10-05 06:25:00,59.7,59.7,30.12,SSE,153,0.0,0.0,100,0.00,,,0.00,VWS V14.01,2013-10-05 10:25:00,
2013-10-05 06:30:00,59.5,59.5,30.09,SSE,153,0.0,0.0,100,0.00,,,0.00,VWS V14.01,2013-10-05 10:30:00,
2013-10-05 06:35:00,59.4,59.4,30.09,SSE,153,0.0,0.0,100,0.00,,,0.00,VWS V14.01,2013-10-05 10:35:00,
2013-10-05 06:40:00,59.4,59.4,30.09,SSE,153,0.0,0.0,100,0.00,,,0.00,VWS V14.01,2013-10-05 10:40:00,
2013-10-05 06:45:00,59.4,59.4,30.12,SSE,153,0.0,0.0,100,0.00,,,0.00,VWS V14.01,2013-10-05 10:45:00,
2013-10-05 06:50:00,59.4,59.4,30.12,SSE,153,0.0,0.0,100,0.00,,,0.00,VWS V14.01,2013-10-05 10:50:00,
2013-10-05 06:55:00,59.5,59.5,30.12,SSE,153,0.0,0.0,100,0.00,,,0.00,VWS V14.01,2013-10-05 10:55:00,
2013-10-05 07:00:00,59.5,59.5,30.12,SSE,153,0.0,0.0,100,0.00,,,0.00,VWS V14.01,2013-10-05 11:00:00,
2013-10-05 07:05:00,59.5,59.5,30.12,SSE,153,0.0,0.0,100,0.00,,,0.00,VWS V14.01,2013-10-05 11:05:00,
2013-10-05 07:11:00,59.5,59.5,30.12,SSE,153,0.0,0.0,100,0.00,,,0.00,VWS V14.01,2013-10-05 11:11:00,
2013-10-05 07:16:00,59.7,59.7,30.12,SSE,153,0.0,0.0,100,0.00,,,0.00,VWS V14.01,2013-10-05 11:16:00,
2013-10-05 07:21:00,59.7,59.7,30.12,SSE,153,0.0,0.0,100,0.00,,,0.00,VWS V14.01,2013-10-05 11:21:00,
2013-10-05 07:26:00,59.7,59.7,30.12,SSE,153,0.0,0.0,100,0.00,,,0.00,VWS V14.01,2013-10-05 11:26:00,
2013-10-05 07:31:00,59.7,59.7,30.12,SSE,153,0.0,0.0,100,0.00,,,0.00,VWS V14.01,2013-10-05 11:31:00,
2013-10-05 07:36:00,59.9,59.9,30.12,SSE,153,0.0,0.0,100,0.00,,,0.00,VWS V14.01,2013-10-05 11:36:00,
2013-10-05 07:41:00,60.1,60.1,30.12,SSE,153,0.0,0.0,100,0.00,,,0.00,VWS V14.01,2013-10-05 11:41:00,
2013-10-05 07:46:00,60.1,60.1,30.12,SSE,153,0.0,0.0,100,0.00,,,0.00,VWS V14.01,2013-10-05 11:46:00,
2013-10-05 07:51:00,60.1,60.1,30.12,SSE,153,0.0,0.0,100,0.00,,,0.00,VWS V14.01,2013-10-05 11:51:00,
2013-10-05 07:56:00,60.1,60.1,30.12,SSE,153,0.0,0.0,100,0.00,,,0.00,VWS V14.01,2013-10-05 11:56:00,
2013-10-05 08:01:00,60.3,60.3,30.12,SSE,153,0.0,0.0,100,0.00,,,0.00,VWS V14.01,2013-10-05 12:01:00,
2013-10-05 08:07:00,60.3,60.3,30.12,SSE,153,0.0,0.0,100,0.00,,,0.00,VWS V14.01,2013-10-05 12:07:00,
2013-10-05 08:12:00,60.4,60.4,30.12,SSE,153,0.0,0.0,100,0.00,,,0.00,VWS V14.01,2013-10-05 12:12:00,
2013-10-05 08:17:00,60.4,60.4,30.12,SSE,153,0.0,0.0,100,0.00,,,0.00,VWS V14.01,2013-10-05 12:17:00,
2013-10-05 08:22:00,60.6,60.6,30.12,SSE,153,0.0,0.0,100,0.00,,,0.00,VWS V14.01,2013-10-05 12:22:00,
2013-10-05 08:27:00,60.8,60.8,30.12,SSE,153,0.0,0.0,100,0.00,,,0.00,VWS V14.01,2013-10-05 12:27:00,
2013-10-05 08:32:00,60.8,60.8,30.12,SSE,153,0.0,0.0,100,0.00,,,0.00,VWS V14.01,2013-10-05 12:32:00,
2013-10-05 08:37:00,61.0,61.0,30.12,SSE,153,0.0,0.0,100,0.00,,,0.00,VWS V14.01,2013-10-05 12:37:00,
2013-10-05 08:42:00,61.2,61.2,30.12,SSE,153,0.0,0.0,100,0.00,,,0.00,VWS V14.01,2013-10-05 12:42:00,
2013-10-05 08:47:00,61.3,61.3,30.12,SSE,154,0.0,0.0,100,0.00,,,0.00,VWS V14.01,2013-10-05 12:47:00,
2013-10-05 08:52:00,61.7,61.7,30.12,SSE,153,0.0,0.0,100,0.00,,,0.00,VWS V14.01,2013-10-05 12:52:00,
2013-10-05 08:57:00,61.9,61.9,30.12,SSE,154,0.0,0.0,100,0.00,,,0.00,VWS V14.01,2013-10-05 12:57:00,
2013-10-05 09:03:00,62.2,62.2,30.12,SSE,154,0.0,0.0,100,0.00,,,0.00,VWS V14.01,2013-10-05 13:03:00,
2013-10-05 09:08:00,62.6,62.6,30.12,SSE,154,0.0,0.0,100,0.00,,,0.00,VWS V14.01,2013-10-05 13:08:00,
2013-10-05 09:13:00,63.1,63.1,30.12,SE,135,0.0,0.0,100,0.00,,,0.00,VWS V14.01,2013-10-05 13:13:00,
2013-10-05 09:18:00,63.3,63.3,30.12,SE,135,0.0,0.0,100,0.00,,,0.00,VWS V14.01,2013-10-05 13:18:00,
2013-10-05 09:23:00,63.1,63.1,30.12,SE,134,0.0,0.0,100,0.00,,,0.00,VWS V14.01,2013-10-05 13:23:00,
2013-10-05 09:28:00,63.7,62.8,30.12,SE,126,0.0,0.0,97,0.00,,,0.00,VWS V14.01,2013-10-05 13:28:00,
2013-10-05 09:33:00,63.7,52.5,30.12,SE,126,0.0,0.0,67,0.00,,,0.00,VWS V14.01,2013-10-05 13:33:00,
2013-10-05 09:38:00,64.8,54.4,30.12,ESE,118,0.0,0.0,69,0.00,,,0.00,VWS V14.01,2013-10-05 13:38:00,
2013-10-05 09:43:00,64.6,50.0,30.12,ESE,118,0.0,0.0,59,0.00,,,0.00,VWS V14.01,2013-10-05 13:43:00,
2013-10-05 09:48:00,64.4,50.2,30.12,ESE,118,0.0,0.0,60,0.00,,,0.00,VWS V14.01,2013-10-05 13:48:00,
2013-10-05 09:54:00,64.8,51.0,30.12,ESE,118,0.0,0.0,61,0.00,,SCT004,0.00,VWS V14.01,2013-10-05 13:54:00,
2013-10-05 09:59:00,65.5,51.2,30.12,ESE,118,0.0,0.0,60,0.00,,SCT004,0.00,VWS V14.01,2013-10-05 13:59:00,
2013-10-05 10:04:00,66.6,51.8,30.12,ESE,118,0.0,0.0,59,0.00,,,0.00,VWS V14.01,2013-10-05 14:04:00,
2013-10-05 10:09:00,67.5,49.2,30.12,SE,130,0.0,0.0,52,0.00,,,0.00,VWS V14.01,2013-10-05 14:09:00,
2013-10-05 10:14:00,68.0,50.2,30.12,South,180,0.0,0.0,53,0.00,,,0.00,VWS V14.01,2013-10-05 14:14:00,
2013-10-05 10:19:00,67.8,48.0,30.12,South,180,0.0,2.2,49,0.00,,,0.00,VWS V14.01,2013-10-05 14:19:00,
2013-10-05 10:24:00,67.5,49.2,30.12,SE,146,0.0,0.0,52,0.00,,,0.00,VWS V14.01,2013-10-05 14:24:00,
2013-10-05 10:29:00,67.5,48.7,30.12,SSW,200,0.0,0.0,51,0.00,,,0.00,VWS V14.01,2013-10-05 14:29:00,
2013-10-05 10:34:00,68.0,49.2,30.12,SSW,203,0.0,0.0,51,0.00,,,0.00,VWS V14.01,2013-10-05 14:34:00,
2013-10-05 10:39:00,68.5,50.8,30.12,SSE,161,0.0,0.0,53,0.00,,,0.00,VWS V14.01,2013-10-05 14:39:00,
2013-10-05 10:45:00,69.1,49.1,30.12,SSW,203,0.0,0.0,49,0.00,,,0.00,VWS V14.01,2013-10-05 14:45:00,
2013-10-05 10:50:00,69.1,48.6,30.12,SSW,211,0.0,0.0,48,0.00,,,0.00,VWS V14.01,2013-10-05 14:50:00,
2013-10-05 10:55:00,69.6,49.6,30.12,SSW,211,0.0,0.0,49,0.00,,,0.00,VWS V14.01,2013-10-05 14:55:00,
2013-10-05 11:00:00,70.5,49.9,30.12,SSW,207,0.0,0.0,48,0.00,,,0.00,VWS V14.01,2013-10-05 15:00:00,
2013-10-05 11:05:00,71.4,50.7,30.12,SSW,201,0.0,0.0,48,0.00,,CLR,0.00,VWS V14.01,2013-10-05 15:05:00,
2013-10-05 11:10:00,72.7,50.7,30.12,SSW,201,0.0,0.0,46,0.00,,CLR,0.00,VWS V14.01,2013-10-05 15:10:00,
2013-10-05 11:15:00,77.4,52.5,30.12,SSW,208,0.0,0.0,42,0.00,,CLR,0.00,VWS V14.01,2013-10-05 15:15:00,
2013-10-05 11:20:00,81.7,53.6,30.12,SSW,208,0.0,0.0,38,0.00,,CLR,0.00,VWS V14.01,2013-10-05 15:20:00,
2013-10-05 11:25:00,82.6,54.4,30.12,NNW,341,0.0,0.0,38,0.00,,CLR,0.00,VWS V14.01,2013-10-05 15:25:00,
2013-10-05 11:30:00,84.9,55.8,30.12,NNW,341,0.0,0.0,37,0.00,,CLR,0.00,VWS V14.01,2013-10-05 15:30:00,
2013-10-05 11:36:00,84.9,55.8,30.12,WNW,296,0.0,0.0,37,0.00,,CLR,0.00,VWS V14.01,2013-10-05 15:36:00,
2013-10-05 11:41:00,86.0,56.7,30.12,WNW,296,0.0,0.0,37,0.00,,CLR,0.00,VWS V14.01,2013-10-05 15:41:00,
2013-10-05 11:46:00,88.0,58.5,30.12,WNW,295,0.0,0.0,37,0.00,,CLR,0.00,VWS V14.01,2013-10-05 15:46:00,
2013-10-05 11:51:00,89.6,59.1,30.12,NNW,329,0.0,0.0,36,0.00,,CLR,0.00,VWS V14.01,2013-10-05 15:51:00,
2013-10-05 11:56:00,90.3,59.8,30.12,NNE,31,0.0,0.0,36,0.00,,CLR,0.00,VWS V14.01,2013-10-05 15:56:00,
2013-10-05 12:01:00,91.4,60.7,30.12,NNE,31,0.0,0.0,36,0.00,,CLR,0.00,VWS V14.01,2013-10-05 16:01:00,
2013-10-05 12:06:00,91.6,60.9,30.12,NNE,31,0.0,0.0,36,0.00,,CLR,0.00,VWS V14.01,2013-10-05 16:06:00,
2013-10-05 12:11:00,91.0,60.4,30.12,NNE,31,0.0,0.0,36,0.00,,CLR,0.00,VWS V14.01,2013-10-05 16:11:00,
2013-10-05 12:17:00,92.1,61.3,30.12,NNE,31,0.0,0.0,36,0.00,,CLR,0.00,VWS V14.01,2013-10-05 16:17:00,
2013-10-05 12:22:00,90.3,59.8,30.12,NE,38,0.0,2.7,36,0.00,,CLR,0.00,VWS V14.01,2013-10-05 16:22:00,
2013-10-05 12:27:00,89.8,59.3,30.12,NE,38,0.0,0.0,36,0.00,,CLR,0.00,VWS V14.01,2013-10-05 16:27:00,
2013-10-05 12:32:00,92.3,61.5,30.12,NE,38,0.0,0.0,36,0.00,,CLR,0.00,VWS V14.01,2013-10-05 16:32:00,
2013-10-05 12:37:00,94.3,62.5,30.12,NE,38,0.0,0.0,35,0.00,,CLR,0.00,VWS V14.01,2013-10-05 16:37:00,
2013-10-05 12:42:00,93.9,62.1,30.12,ENE,60,0.0,0.0,35,0.00,,CLR,0.00,VWS V14.01,2013-10-05 16:42:00,
2013-10-05 12:47:00,91.2,60.6,30.12,SSW,212,0.0,0.0,36,0.00,,CLR,0.00,VWS V14.01,2013-10-05 16:47:00,
2013-10-05 12:52:00,91.9,61.2,30.12,SSW,212,0.0,0.0,36,0.00,,CLR,0.00,VWS V14.01,2013-10-05 16:52:00,
2013-10-05 12:57:00,92.5,61.7,30.12,SSW,205,0.0,0.0,36,0.00,,CLR,0.00,VWS V14.01,2013-10-05 16:57:00,
2013-10-05 13:03:00,93.0,62.1,30.12,SW,219,0.0,0.0,36,0.00,,CLR,0.00,VWS V14.01,2013-10-05 17:03:00,
2013-10-05 13:08:00,94.6,62.8,30.12,East,91,2.7,3.1,35,0.00,,CLR,0.00,VWS V14.01,2013-10-05 17:08:00,
2013-10-05 13:13:00,95.7,63.7,30.09,SE,126,0.0,0.0,35,0.00,,CLR,0.00,VWS V14.01,2013-10-05 17:13:00,
2013-10-05 13:18:00,95.9,63.9,30.09,NNW,341,0.0,4.9,35,0.00,,CLR,0.00,VWS V14.01,2013-10-05 17:18:00,
2013-10-05 13:23:00,95.9,63.9,30.09,South,172,0.0,0.0,35,0.00,,CLR,0.00,VWS V14.01,2013-10-05 17:23:00,
2013-10-05 13:28:00,91.2,60.6,30.09,SW,230,0.0,0.0,36,0.00,,CLR,0.00,VWS V14.01,2013-10-05 17:28:00,
2013-10-05 13:33:00,89.2,59.6,30.09,SW,230,0.0,3.6,37,0.00,,CLR,0.00,VWS V14.01,2013-10-05 17:33:00,
2013-10-05 13:39:00,90.7,60.1,30.09,SSW,193,0.0,0.0,36,0.00,,CLR,0.00,VWS V14.01,2013-10-05 17:39:00,
2013-10-05 13:44:00,90.9,60.2,30.09,SSW,209,0.0,3.6,36,0.00,,CLR,0.00,VWS V14.01,2013-10-05 17:44:00,
2013-10-05 13:49:00,90.0,59.5,30.09,ENE,77,3.1,3.6,36,0.00,,CLR,0.00,VWS V14.01,2013-10-05 17:49:00,
2013-10-05 13:54:00,88.3,58.8,30.09,SSW,202,0.0,0.0,37,0.00,,CLR,0.00,VWS V14.01,2013-10-05 17:54:00,
2013-10-05 13:59:00,87.3,57.8,30.09,SW,219,0.0,0.0,37,0.00,,CLR,0.00,VWS V14.01,2013-10-05 17:59:00,
2013-10-05 14:04:00,87.6,58.2,30.09,SSW,196,0.0,3.1,37,0.00,,CLR,0.00,VWS V14.01,2013-10-05 18:04:00,
2013-10-05 14:09:00,88.0,58.5,30.09,SW,232,0.0,3.1,37,0.00,,CLR,0.00,VWS V14.01,2013-10-05 18:09:00,
2013-10-05 14:14:00,88.3,58.8,30.09,SSW,211,0.0,3.6,37,0.00,,CLR,0.00,VWS V14.01,2013-10-05 18:14:00,
2013-10-05 14:19:00,88.2,58.6,30.09,South,188,0.0,0.0,37,0.00,,CLR,0.00,VWS V14.01,2013-10-05 18:19:00,
2013-10-05 14:25:00,88.5,59.0,30.09,ESE,118,0.0,0.0,37,0.00,,CLR,0.00,VWS V14.01,2013-10-05 18:25:00,
2013-10-05 14:30:00,87.8,58.3,30.06,SSW,193,0.0,0.0,37,0.00,,CLR,0.00,VWS V14.01,2013-10-05 18:30:00,
2013-10-05 14:35:00,88.2,58.6,30.06,SW,220,0.0,3.1,37,0.00,,CLR,0.00,VWS V14.01,2013-10-05 18:35:00,
2013-10-05 14:40:00,87.6,58.2,30.06,ENE,66,0.0,0.0,37,0.00,,CLR,0.00,VWS V14.01,2013-10-05 18:40:00,
2013-10-05 14:45:00,86.0,56.7,30.06,SW,229,0.0,0.0,37,0.00,,CLR,0.00,VWS V14.01,2013-10-05 18:45:00,
2013-10-05 14:51:00,84.7,55.6,30.06,SW,229,0.0,0.0,37,0.00,,CLR,0.00,VWS V14.01,2013-10-05 18:51:00,
2013-10-05 14:56:00,84.6,55.5,30.06,South,180,3.1,3.1,37,0.00,,CLR,0.00,VWS V14.01,2013-10-05 18:56:00,
2013-10-05 15:01:00,85.1,55.9,30.06,SE,130,0.0,0.0,37,0.00,,CLR,0.00,VWS V14.01,2013-10-05 19:01:00,
2013-10-05 15:06:00,84.6,55.5,30.06,SSW,206,0.0,0.0,37,0.00,,CLR,0.00,VWS V14.01,2013-10-05 19:06:00,
2013-10-05 15:11:00,84.2,55.1,30.06,NW,316,0.0,3.6,37,0.00,,CLR,0.00,VWS V14.01,2013-10-05 19:11:00,
2013-10-05 15:16:00,84.4,55.3,30.06,SSE,152,2.2,3.6,37,0.00,,CLR,0.00,VWS V14.01,2013-10-05 19:16:00,
2013-10-05 15:21:00,84.6,55.5,30.06,SSE,161,0.0,3.1,37,0.00,,CLR,0.00,VWS V14.01,2013-10-05 19:21:00,
2013-10-05 15:26:00,84.7,55.6,30.06,SSW,197,0.0,3.1,37,0.00,,CLR,0.00,VWS V14.01,2013-10-05 19:26:00,
2013-10-05 15:31:00,83.8,55.5,30.06,SE,130,0.0,2.2,38,0.00,,CLR,0.00,VWS V14.01,2013-10-05 19:31:00,
2013-10-05 15:37:00,82.4,54.3,30.06,NE,53,0.0,4.0,38,0.00,,CLR,0.00,VWS V14.01,2013-10-05 19:37:00,
2013-10-05 15:42:00,82.0,54.0,30.06,ENE,64,0.0,2.7,38,0.00,,CLR,0.00,VWS V14.01,2013-10-05 19:42:00,
2013-10-05 15:47:00,81.9,53.8,30.06,SSE,148,0.0,4.0,38,0.00,,CLR,0.00,VWS V14.01,2013-10-05 19:47:00,
2013-10-05 15:52:00,81.5,53.5,30.06,SW,215,2.2,2.7,38,0.00,,CLR,0.00,VWS V14.01,2013-10-05 19:52:00,
2013-10-05 15:57:00,81.0,53.0,30.06,ESE,106,0.0,3.1,38,0.00,,CLR,0.00,VWS V14.01,2013-10-05 19:57:00,
2013-10-05 16:02:00,80.2,53.1,30.06,SW,233,0.0,4.9,39,0.00,,CLR,0.00,VWS V14.01,2013-10-05 20:02:00,
2013-10-05 16:07:00,80.1,52.9,30.06,ESE,102,0.0,3.6,39,0.00,,CLR,0.00,VWS V14.01,2013-10-05 20:07:00,
2013-10-05 16:13:00,80.1,52.9,30.06,South,174,2.7,3.6,39,0.00,,CLR,0.00,VWS V14.01,2013-10-05 20:13:00,
2013-10-05 16:18:00,80.1,52.9,30.06,East,84,0.0,3.1,39,0.00,,CLR,0.00,VWS V14.01,2013-10-05 20:18:00,
2013-10-05 16:23:00,80.6,52.7,30.06,SE,146,0.0,3.6,38,0.00,,CLR,0.00,VWS V14.01,2013-10-05 20:23:00,
2013-10-05 16:28:00,80.6,52.7,30.06,South,178,0.0,3.6,38,0.00,,CLR,0.00,VWS V14.01,2013-10-05 20:28:00,
2013-10-05 16:33:00,80.1,52.9,30.06,NE,56,3.6,3.6,39,0.00,,CLR,0.00,VWS V14.01,2013-10-05 20:33:00,
2013-10-05 16:38:00,79.9,52.7,30.06,SW,221,0.0,3.1,39,0.00,,CLR,0.00,VWS V14.01,2013-10-05 20:38:00,
2013-10-05 16:43:00,79.7,52.6,30.06,SW,214,0.0,0.0,39,0.00,,CLR,0.00,VWS V14.01,2013-10-05 20:43:00,
2013-10-05 16:49:00,79.7,52.6,30.06,SW,226,0.0,2.2,39,0.00,,CLR,0.00,VWS V14.01,2013-10-05 20:49:00,
2013-10-05 16:54:00,79.2,52.1,30.06,SSE,165,0.0,0.0,39,0.00,,CLR,0.00,VWS V14.01,2013-10-05 20:54:00,
2013-10-05 16:59:00,79.2,52.1,30.06,SW,227,0.0,3.1,39,0.00,,CLR,0.00,VWS V14.01,2013-10-05 20:59:00,
2013-10-05 17:04:00,79.0,51.9,30.06,NE,52,0.0,0.0,39,0.00,,FEW046,0.00,VWS V14.01,2013-10-05 21:04:00,
2013-10-05 17:09:00,78.8,51.8,30.06,West,261,0.0,0.0,39,0.00,,FEW046,0.00,VWS V14.01,2013-10-05 21:09:00,
2013-10-05 17:14:00,78.4,51.5,30.06,SW,219,0.0,0.0,39,0.00,,FEW046,0.00,VWS V14.01,2013-10-05 21:14:00,
2013-10-05 17:19:00,78.1,51.1,30.06,South,179,0.0,0.0,39,0.00,,FEW046,0.00,VWS V14.01,2013-10-05 21:19:00,
2013-10-05 17:24:00,77.7,50.8,30.06,NE,41,0.0,0.0,39,0.00,,FEW046,0.00,VWS V14.01,2013-10-05 21:24:00,
2013-10-05 17:30:00,77.4,50.5,30.06,ESE,106,0.0,0.0,39,0.00,,FEW046,0.00,VWS V14.01,2013-10-05 21:30:00,
2013-10-05 17:35:00,77.2,50.3,30.06,South,177,0.0,2.2,39,0.00,,FEW046,0.00,VWS V14.01,2013-10-05 21:35:00,
2013-10-05 17:40:00,77.0,50.2,30.06,SSW,199,0.0,2.2,39,0.00,,FEW046,0.00,VWS V14.01,2013-10-05 21:40:00,
2013-10-05 17:45:00,76.8,50.0,30.06,South,176,0.0,2.2,39,0.00,,FEW046,0.00,VWS V14.01,2013-10-05 21:45:00,
2013-10-05 17:50:00,76.6,49.8,30.06,South,170,0.0,4.0,39,0.00,,FEW046,0.00,VWS V14.01,2013-10-05 21:50:00,
2013-10-05 17:55:00,76.5,49.7,30.06,SSE,166,0.0,0.0,39,0.00,,FEW046,0.00,VWS V14.01,2013-10-05 21:55:00,
2013-10-05 18:00:00,76.1,49.4,30.06,SW,230,0.0,2.7,39,0.00,,FEW046,0.00,VWS V14.01,2013-10-05 22:00:00,
2013-10-05 18:05:00,75.7,49.0,30.06,SSE,147,0.0,0.0,39,0.00,,CLR,0.00,VWS V14.01,2013-10-05 22:05:00,
2013-10-05 18:10:00,75.4,48.7,30.06,South,169,0.0,2.2,39,0.00,,CLR,0.00,VWS V14.01,2013-10-05 22:10:00,
2013-10-05 18:15:00,75.0,49.1,30.06,ENE,77,0.0,0.0,40,0.00,,CLR,0.00,VWS V14.01,2013-10-05 22:15:00,
2013-10-05 18:20:00,74.5,48.6,30.06,South,179,0.0,3.6,40,0.00,,CLR,0.00,VWS V14.01,2013-10-05 22:20:00,
2013-10-05 18:26:00,74.3,48.4,30.06,SSE,155,3.1,3.1,40,0.00,,CLR,0.00,VWS V14.01,2013-10-05 22:26:00,
2013-10-05 18:31:00,73.9,48.1,30.06,WSW,242,0.0,0.0,40,0.00,,CLR,0.00,VWS V14.01,2013-10-05 22:31:00,
2013-10-05 18:36:00,73.4,47.6,30.06,North,353,0.0,0.0,40,0.00,,CLR,0.00,VWS V14.01,2013-10-05 22:36:00,
2013-10-05 18:41:00,72.9,49.1,30.06,North,353,0.0,0.0,43,0.00,,CLR,0.00,VWS V14.01,2013-10-05 22:41:00,
2013-10-05 18:46:00,72.5,48.8,30.06,North,353,0.0,0.0,43,0.00,,CLR,0.00,VWS V14.01,2013-10-05 22:46:00,
2013-10-05 18:52:00,71.8,49.3,30.06,North,353,0.0,0.0,45,0.00,,CLR,0.00,VWS V14.01,2013-10-05 22:52:00,
2013-10-05 18:57:00,71.2,50.0,30.06,North,353,0.0,0.0,47,0.00,,CLR,0.00,VWS V14.01,2013-10-05 22:57:00,
2013-10-05 19:02:00,70.5,49.3,30.06,North,353,0.0,0.0,47,0.00,,CLR,0.00,VWS V14.01,2013-10-05 23:02:00,
2013-10-05 19:07:00,70.0,49.4,30.06,North,353,0.0,0.0,48,0.00,,CLR,0.00,VWS V14.01,2013-10-05 23:07:00,
2013-10-05 19:12:00,69.6,50.2,30.06,North,353,0.0,0.0,50,0.00,,CLR,0.00,VWS V14.01,2013-10-05 23:12:00,
2013-10-05 19:17:00,69.3,50.9,30.06,North,353,0.0,0.0,52,0.00,,CLR,0.00,VWS V14.01,2013-10-05 23:17:00,
2013-10-05 19:22:00,68.9,51.6,30.06,North,353,0.0,0.0,54,0.00,,CLR,0.00,VWS V14.01,2013-10-05 23:22:00,
2013-10-05 19:27:00,68.5,51.2,30.06,North,353,0.0,0.0,54,0.00,,CLR,0.00,VWS V14.01,2013-10-05 23:27:00,
2013-10-05 19:33:00,68.2,51.9,30.06,North,353,0.0,0.0,56,0.00,,CLR,0.00,VWS V14.01,2013-10-05 23:33:00,
2013-10-05 19:38:00,67.8,52.0,30.06,North,353,0.0,0.0,57,0.00,,CLR,0.00,VWS V14.01,2013-10-05 23:38:00,
2013-10-05 19:43:00,67.5,51.7,30.06,North,353,0.0,0.0,57,0.00,,CLR,0.00,VWS V14.01,2013-10-05 23:43:00,
2013-10-05 19:48:00,67.3,52.0,30.06,North,353,0.0,0.0,58,0.00,,CLR,0.00,VWS V14.01,2013-10-05 23:48:00,
2013-10-05 19:53:00,66.9,52.1,30.06,North,353,0.0,0.0,59,0.00,,CLR,0.00,VWS V14.01,2013-10-05 23:53:00,
2013-10-05 19:58:00,66.7,53.3,30.06,North,353,0.0,0.0,62,0.00,,CLR,0.00,VWS V14.01,2013-10-05 23:58:00,
2013-10-05 20:03:00,66.6,52.7,30.06,North,353,0.0,0.0,61,0.00,,CLR,0.00,VWS V14.01,2013-10-06 00:03:00,
2013-10-05 20:09:00,66.4,53.0,30.06,North,353,0.0,0.0,62,0.00,,CLR,0.00,VWS V14.01,2013-10-06 00:09:00,
2013-10-05 20:14:00,66.2,52.8,30.06,North,353,0.0,0.0,62,0.00,,CLR,0.00,VWS V14.01,2013-10-06 00:14:00,
2013-10-05 20:19:00,66.0,54.3,30.06,North,353,0.0,0.0,66,0.00,,CLR,0.00,VWS V14.01,2013-10-06 00:19:00,
2013-10-05 20:24:00,65.7,54.4,30.06,North,353,0.0,0.0,67,0.00,,CLR,0.00,VWS V14.01,2013-10-06 00:24:00,
2013-10-05 20:29:00,65.5,54.2,30.06,North,353,0.0,0.0,67,0.00,,CLR,0.00,VWS V14.01,2013-10-06 00:29:00,
2013-10-05 20:34:00,65.3,54.1,30.06,North,353,0.0,0.0,67,0.00,,CLR,0.00,VWS V14.01,2013-10-06 00:34:00,
2013-10-05 20:39:00,65.1,54.3,30.06,North,353,0.0,0.0,68,0.00,,CLR,0.00,VWS V14.01,2013-10-06 00:39:00,
2013-10-05 20:45:00,64.9,54.5,30.06,North,353,0.0,0.0,69,0.00,,CLR,0.00,VWS V14.01,2013-10-06 00:45:00,
2013-10-05 20:50:00,64.8,54.8,30.06,North,353,0.0,0.0,70,0.00,,CLR,0.00,VWS V14.01,2013-10-06 00:50:00,
2013-10-05 20:55:00,64.4,54.8,30.06,North,353,0.0,0.0,71,0.00,,CLR,0.00,VWS V14.01,2013-10-06 00:55:00,
2013-10-05 21:00:00,64.2,55.0,30.06,North,353,0.0,0.0,72,0.00,,CLR,0.00,VWS V14.01,2013-10-06 01:00:00,
2013-10-05 21:05:00,64.2,55.4,30.06,North,353,0.0,0.0,73,0.00,,CLR,0.00,VWS V14.01,2013-10-06 01:05:00,
2013-10-05 21:10:00,64.0,55.6,30.06,North,353,0.0,0.0,74,0.00,,CLR,0.00,VWS V14.01,2013-10-06 01:10:00,
2013-10-05 21:16:00,63.9,55.8,30.06,North,353,0.0,0.0,75,0.00,,CLR,0.00,VWS V14.01,2013-10-06 01:16:00,
2013-10-05 21:21:00,63.9,56.2,30.06,North,353,0.0,0.0,76,0.00,,CLR,0.00,VWS V14.01,2013-10-06 01:21:00,
2013-10-05 21:26:00,63.7,56.0,30.06,North,353,0.0,0.0,76,0.00,,CLR,0.00,VWS V14.01,2013-10-06 01:26:00,
2013-10-05 21:31:00,63.5,56.2,30.06,North,353,0.0,0.0,77,0.00,,CLR,0.00,VWS V14.01,2013-10-06 01:31:00,
2013-10-05 21:36:00,63.3,56.7,30.06,North,353,0.0,0.0,79,0.00,,CLR,0.00,VWS V14.01,2013-10-06 01:36:00,
2013-10-05 21:41:00,63.1,56.9,30.09,North,353,0.0,0.0,80,0.00,,CLR,0.00,VWS V14.01,2013-10-06 01:41:00,
2013-10-05 21:47:00,63.0,56.7,30.09,North,353,0.0,0.0,80,0.00,,CLR,0.00,VWS V14.01,2013-10-06 01:47:00,
2013-10-05 21:52:00,62.8,56.5,30.09,North,353,0.0,0.0,80,0.00,,CLR,0.00,VWS V14.01,2013-10-06 01:52:00,
2013-10-05 21:57:00,62.8,56.9,30.06,North,353,0.0,0.0,81,0.00,,CLR,0.00,VWS V14.01,2013-10-06 01:57:00,
2013-10-05 22:02:00,62.6,57.4,30.06,North,353,0.0,0.0,83,0.00,,CLR,0.00,VWS V14.01,2013-10-06 02:02:00,
2013-10-05 22:07:00,62.4,57.2,30.06,North,353,0.0,0.0,83,0.00,,CLR,0.00,VWS V14.01,2013-10-06 02:07:00,
2013-10-05 22:12:00,62.2,56.7,30.06,North,353,0.0,0.0,82,0.00,,CLR,0.00,VWS V14.01,2013-10-06 02:12:00,
2013-10-05 22:17:00,62.2,57.3,30.06,North,353,0.0,0.0,84,0.00,,CLR,0.00,VWS V14.01,2013-10-06 02:17:00,
2013-10-05 22:22:00,62.2,57.7,30.06,North,353,0.0,0.0,85,0.00,,CLR,0.00,VWS V14.01,2013-10-06 02:22:00,
2013-10-05 22:27:00,62.1,58.2,30.06,North,353,0.0,0.0,87,0.00,,CLR,0.00,VWS V14.01,2013-10-06 02:27:00,
2013-10-05 22:33:00,62.1,58.8,30.06,North,353,0.0,0.0,89,0.00,,CLR,0.00,VWS V14.01,2013-10-06 02:33:00,
2013-10-05 22:38:00,61.9,58.6,30.06,North,353,0.0,0.0,89,0.00,,CLR,0.00,VWS V14.01,2013-10-06 02:38:00,
2013-10-05 22:43:00,61.9,58.9,30.06,North,353,0.0,0.0,90,0.00,,CLR,0.00,VWS V14.01,2013-10-06 02:43:00,
2013-10-05 22:48:00,61.7,58.7,30.06,North,353,0.0,0.0,90,0.00,,CLR,0.00,VWS V14.01,2013-10-06 02:48:00,
2013-10-05 22:53:00,61.5,58.9,30.06,North,353,0.0,0.0,91,0.00,,CLR,0.00,VWS V14.01,2013-10-06 02:53:00,
2013-10-05 22:58:00,61.5,59.2,30.06,North,353,0.0,0.0,92,0.00,,CLR,0.00,VWS V14.01,2013-10-06 02:58:00,
2013-10-05 23:04:00,61.3,59.0,30.06,North,353,0.0,0.0,92,0.00,,CLR,0.00,VWS V14.01,2013-10-06 03:04:00,
2013-10-05 23:09:00,61.3,59.3,30.06,North,353,0.0,0.0,93,0.00,,CLR,0.00,VWS V14.01,2013-10-06 03:09:00,
2013-10-05 23:14:00,61.0,58.6,30.06,North,353,0.0,0.0,92,0.00,,CLR,0.00,VWS V14.01,2013-10-06 03:14:00,
2013-10-05 23:19:00,61.0,59.0,30.06,North,353,0.0,0.0,93,0.00,,CLR,0.00,VWS V14.01,2013-10-06 03:19:00,
2013-10-05 23:24:00,61.0,59.2,30.06,North,353,0.0,0.0,94,0.00,,CLR,0.00,VWS V14.01,2013-10-06 03:24:00,
2013-10-05 23:30:00,60.6,58.9,30.06,North,353,0.0,0.0,94,0.00,,CLR,0.00,VWS V14.01,2013-10-06 03:30:00,
2013-10-05 23:35:00,60.6,59.2,30.06,North,353,0.0,0.0,95,0.00,,CLR,0.00,VWS V14.01,2013-10-06 03:35:00,
2013-10-05 23:40:00,60.6,59.5,30.06,North,353,0.0,0.0,96,0.00,,CLR,0.00,VWS V14.01,2013-10-06 03:40:00,
2013-10-05 23:45:00,60.6,59.5,30.06,North,353,0.0,0.0,96,0.00,,CLR,0.00,VWS V14.01,2013-10-06 03:45:00,
2013-10-05 23:50:00,60.4,59.6,30.06,North,353,0.0,0.0,97,0.00,,CLR,0.00,VWS V14.01,2013-10-06 03:50:00,
2013-10-05 23:55:00,60.4,59.6,30.06,North,353,0.0,0.0,97,0.00,,CLR,0.00,VWS V14.01,2013-10-06 03:55:00,